This demonstration page uses our WeatherBlox Daily Observations layout. Learn more.

Left ArrowRight Arrow

Hourly Observations for February 26, 2019

Temp ( °F °C ) Dew Point ( °F °C ) Humidity (%) Winds ( mph kmh ) Pressure ( in mb ) Visibility ( mi km ) Precip ( " mm )
12:53 am 00:53 Cloudy 29 -1.7 22 -5.6 75 75 N N/A 30.43 1031 10 16.0934 N/A
1:53 am 01:53 Cloudy 27 -2.8 21 -6.1 78 78 N N/A 30.44 1031 10 16.0934 N/A
2:53 am 02:53 Cloudy 27 -2.8 19 -7.2 72 72 N N/A 30.43 1031 10 16.0934 N/A
3:53 am 03:53 Clear 26 -3.3 19 -7.2 75 75 N N/A 30.42 1030 10 16.0934 N/A
4:53 am 04:53 Clear 27 -2.8 19 -7.2 72 72 N N/A 30.42 1030 10 16.0934 N/A
5:53 am 05:53 Clear 23 -5 17 -8.3 78 78 N N/A 30.45 1031 10 16.0934 N/A
6:53 am 06:53 Clear 22 -5.6 18 -7.8 85 85 N N/A 30.45 1031 10 16.0934 N/A
7:53 am 07:53 Sunny 28 -2.2 17 -8.3 63 63 NE 6 9 30.46 1032 10 16.0934 N/A
8:53 am 08:53 Sunny 31 -0.6 19 -7.2 61 61 E 7 11 30.47 1032 10 16.0934 N/A
9:53 am 09:53 Sunny 35 1.7 17 -8.3 48 48 ESE 5 7 30.46 1031 10 16.0934 N/A
10:53 am 10:53 Sunny 38 3.3 19 -7.2 46 46 VRB 5 7 30.45 1031 10 16.0934 N/A
11:53 am 11:53 Sunny 39 3.9 19 -7.2 45 45 NNE 7 11 30.45 1031 10 16.0934 N/A
12:53 pm 12:53 Sunny 42 5.6 21 -6.1 43 43 NNE 7 11 30.42 1030 10 16.0934 N/A
1:53 pm 13:53 Sunny 44 6.7 21 -6.1 40 40 N N/A 30.38 1029 10 16.0934 N/A
2:53 pm 14:53 Sunny 46 7.8 23 -5 40 40 NNE 8 13 30.37 1029 10 16.0934 N/A
3:53 pm 15:53 Sunny 47 8.3 24 -4.4 41 41 N N/A 30.37 1028 10 16.0934 N/A
4:53 pm 16:53 Sunny 47 8.3 24 -4.4 41 41 E 8 13 30.33 1027 10 16.0934 N/A
5:53 pm 17:53 Sunny 44 6.7 25 -3.9 47 47 NE 12 19 30.34 1027 10 16.0934 N/A
6:53 pm 18:53 Clear 40 4.4 25 -3.9 55 55 ENE 10 17 30.35 1028 10 16.0934 N/A
7:53 pm 19:53 Clear 36 2.2 24 -4.4 62 62 E 9 15 30.35 1028 10 16.0934 N/A
8:53 pm 20:53 Clear 34 1.1 23 -5 64 64 E 7 11 30.34 1027 10 16.0934 N/A
9:53 pm 21:53 Clear 31 -0.6 22 -5.6 69 69 E 5 7 30.33 1027 10 16.0934 N/A
10:53 pm 22:53 Clear 31 -0.6 22 -5.6 69 69 ENE 5 7 30.32 1027 10 16.0934 N/A
11:53 pm 23:53 Clear 30 -1.1 22 -5.6 72 72 NE 5 7 30.3 1026 10 16.0934 N/A

Powered by AerisWeather